Time,TemperatureF,DewpointF,PressureIn,WindDirection,WindDirectionDegrees,WindSpeedMPH,WindSpeedGustMPH,Humidity,HourlyPrecipIn,Conditions,Clouds,dailyrainin,SoftwareType,DateUTC
2013-03-29 00:03:00,51.0,46.0,30.22,North,357,0.0,0.0,83,0.00,,,0.00,,2013-03-29 04:03:00,
2013-03-29 00:13:00,51.0,46.0,30.22,North,357,0.0,0.0,83,0.00,,,0.00,,2013-03-29 04:13:00,
2013-03-29 00:23:00,51.0,46.0,30.22,North,358,0.0,0.0,84,0.00,,,0.00,,2013-03-29 04:23:00,
2013-03-29 00:33:00,50.0,45.0,30.22,North,357,0.0,0.0,84,0.00,,,0.00,,2013-03-29 04:33:00,
2013-03-29 00:43:00,50.0,45.0,30.22,North,357,0.0,0.0,84,0.00,,,0.00,,2013-03-29 04:43:00,
2013-03-29 00:53:00,50.0,46.0,30.22,North,357,0.0,0.0,86,0.00,,,0.00,,2013-03-29 04:53:00,
2013-03-29 01:03:00,50.0,46.0,30.22,North,358,0.0,0.0,86,0.00,,,0.00,,2013-03-29 05:03:00,
2013-03-29 01:12:00,50.0,46.0,30.22,North,358,0.0,0.0,86,0.00,,,0.00,,2013-03-29 05:12:00,
2013-03-29 01:23:00,50.0,47.0,30.22,North,357,0.0,0.0,89,0.00,,,0.00,,2013-03-29 05:23:00,
2013-03-29 01:33:00,50.0,47.0,30.22,North,357,0.0,0.0,90,0.00,,,0.00,,2013-03-29 05:33:00,
2013-03-29 01:43:00,50.0,47.0,30.22,North,357,0.0,0.0,90,0.00,,,0.00,,2013-03-29 05:43:00,
2013-03-29 01:52:00,49.0,46.0,30.22,North,357,0.0,0.0,90,0.00,,,0.00,,2013-03-29 05:52:00,
2013-03-29 02:02:00,49.0,46.0,30.22,North,357,0.0,0.0,91,0.00,,,0.00,,2013-03-29 06:02:00,
2013-03-29 02:12:00,49.0,46.0,30.22,North,357,0.0,0.0,91,0.00,,,0.00,,2013-03-29 06:12:00,
2013-03-29 02:23:00,49.0,47.0,30.22,North,357,0.0,0.0,92,0.00,,,0.00,,2013-03-29 06:23:00,
2013-03-29 02:32:00,49.0,46.0,30.22,North,357,0.0,0.0,91,0.00,,,0.00,,2013-03-29 06:32:00,
2013-03-29 02:42:00,49.0,46.0,30.22,North,357,0.0,0.0,91,0.00,,,0.00,,2013-03-29 06:42:00,
2013-03-29 02:52:00,49.0,47.0,30.22,North,357,0.0,0.0,92,0.00,,,0.00,,2013-03-29 06:52:00,
2013-03-29 03:03:00,49.0,47.0,30.22,North,357,0.0,0.0,92,0.00,,,0.00,,2013-03-29 07:03:00,
2013-03-29 03:12:00,49.0,47.0,30.22,North,357,0.0,0.0,92,0.00,,,0.00,,2013-03-29 07:12:00,
2013-03-29 03:22:00,49.0,47.0,30.21,North,357,0.0,0.0,93,0.00,,,0.00,,2013-03-29 07:22:00,
2013-03-29 03:32:00,48.0,46.0,30.21,North,357,0.0,0.0,93,0.00,,,0.00,,2013-03-29 07:32:00,
2013-03-29 03:42:00,48.0,46.0,30.21,North,357,0.0,0.0,93,0.00,,,0.00,,2013-03-29 07:42:00,
2013-03-29 03:52:00,48.0,46.0,30.20,North,357,0.0,0.0,93,0.00,,,0.00,,2013-03-29 07:52:00,
2013-03-29 04:02:00,48.0,46.0,30.20,North,358,0.0,0.0,93,0.00,,,0.00,,2013-03-29 08:02:00,
2013-03-29 04:12:00,48.0,46.0,30.20,North,358,0.0,0.0,93,0.00,,,0.00,,2013-03-29 08:12:00,
2013-03-29 04:22:00,47.0,45.0,30.20,North,358,0.0,0.0,93,0.00,,,0.00,,2013-03-29 08:22:00,
2013-03-29 04:32:00,47.0,45.0,30.20,North,357,0.0,0.0,93,0.00,,,0.00,,2013-03-29 08:32:00,
2013-03-29 04:42:00,47.0,45.0,30.20,North,357,0.0,0.0,93,0.00,,,0.00,,2013-03-29 08:42:00,
2013-03-29 04:53:00,47.0,45.0,30.20,North,358,0.0,0.0,93,0.00,,,0.00,,2013-03-29 08:53:00,
2013-03-29 05:02:00,47.0,45.0,30.20,North,357,0.0,0.0,93,0.00,,,0.00,,2013-03-29 09:02:00,
2013-03-29 05:13:00,47.0,45.0,30.20,North,357,0.0,0.0,93,0.00,,,0.00,,2013-03-29 09:13:00,
2013-03-29 05:22:00,47.0,45.0,30.20,North,357,0.0,0.0,93,0.00,,,0.00,,2013-03-29 09:22:00,
2013-03-29 05:33:00,46.0,44.0,30.20,North,358,0.0,0.0,93,0.00,,,0.00,,2013-03-29 09:33:00,
2013-03-29 05:43:00,46.0,44.0,30.20,North,358,0.0,0.0,93,0.00,,,0.00,,2013-03-29 09:43:00,
2013-03-29 05:52:00,47.0,45.0,30.20,North,357,0.0,0.0,93,0.00,,,0.00,,2013-03-29 09:52:00,
2013-03-29 06:03:00,47.0,45.0,30.20,North,358,0.0,0.0,93,0.00,,,0.00,,2013-03-29 10:03:00,
2013-03-29 06:12:00,47.0,45.0,30.20,North,358,0.0,0.0,93,0.00,,,0.00,,2013-03-29 10:12:00,
2013-03-29 06:23:00,47.0,45.0,30.21,North,358,0.0,0.0,92,0.00,,,0.00,,2013-03-29 10:23:00,
2013-03-29 06:33:00,47.0,45.0,30.21,North,358,0.0,0.0,92,0.00,,,0.00,,2013-03-29 10:33:00,
2013-03-29 06:42:00,47.0,45.0,30.21,North,358,0.0,0.0,92,0.00,,,0.00,,2013-03-29 10:42:00,
2013-03-29 06:53:00,47.0,45.0,30.22,North,357,0.0,0.0,92,0.00,,,0.00,,2013-03-29 10:53:00,
2013-03-29 07:03:00,47.0,45.0,30.22,North,357,0.0,0.0,92,0.00,,,0.00,,2013-03-29 11:03:00,
2013-03-29 07:12:00,47.0,45.0,30.22,North,357,0.0,0.0,92,0.00,,,0.00,,2013-03-29 11:12:00,
2013-03-29 07:23:00,46.0,44.0,30.22,North,358,0.0,0.0,91,0.00,,,0.00,,2013-03-29 11:23:00,
2013-03-29 07:33:00,46.0,44.0,30.22,North,357,0.0,0.0,92,0.00,,,0.00,,2013-03-29 11:33:00,
2013-03-29 07:42:00,46.0,44.0,30.22,North,357,0.0,0.0,92,0.00,,,0.00,,2013-03-29 11:42:00,
2013-03-29 07:53:00,46.0,44.0,30.23,North,358,0.0,0.0,92,0.00,,,0.00,,2013-03-29 11:53:00,
2013-03-29 08:03:00,46.0,44.0,30.23,North,357,0.0,1.0,92,0.00,,,0.00,,2013-03-29 12:03:00,
2013-03-29 08:12:00,46.0,44.0,30.23,North,357,0.0,1.0,92,0.00,,,0.00,,2013-03-29 12:12:00,
2013-03-29 08:22:00,47.0,45.0,30.24,North,357,0.0,0.0,92,0.00,,,0.00,,2013-03-29 12:22:00,
2013-03-29 08:32:00,47.0,45.0,30.24,North,357,0.0,3.0,92,0.00,,,0.00,,2013-03-29 12:32:00,
2013-03-29 08:42:00,47.0,45.0,30.24,North,357,0.0,3.0,92,0.00,,,0.00,,2013-03-29 12:42:00,
2013-03-29 08:53:00,49.0,46.0,30.25,North,350,0.0,3.0,90,0.00,,,0.00,,2013-03-29 12:53:00,
2013-03-29 09:03:00,50.0,47.0,30.25,North,350,0.0,1.0,89,0.00,,,0.00,,2013-03-29 13:03:00,
2013-03-29 09:12:00,50.0,47.0,30.25,North,350,0.0,1.0,89,0.00,,,0.00,,2013-03-29 13:12:00,
2013-03-29 09:22:00,52.0,47.0,30.26,North,350,0.0,2.0,83,0.00,,,0.00,,2013-03-29 13:22:00,
2013-03-29 09:32:00,53.0,48.0,30.26,North,350,0.0,1.0,83,0.00,,,0.00,,2013-03-29 13:32:00,
2013-03-29 09:42:00,53.0,48.0,30.26,North,350,0.0,1.0,83,0.00,,,0.00,,2013-03-29 13:42:00,
2013-03-29 09:53:00,57.0,49.0,30.27,NNW,348,0.0,2.0,74,0.00,,,0.00,,2013-03-29 13:53:00,
2013-03-29 10:03:00,59.0,49.0,30.27,NNW,347,1.0,3.0,69,0.00,,,0.00,,2013-03-29 14:03:00,
2013-03-29 10:12:00,59.0,49.0,30.27,NNW,347,1.0,3.0,69,0.00,,,0.00,,2013-03-29 14:12:00,
2013-03-29 10:22:00,62.0,46.0,30.27,NNW,333,1.0,6.0,56,0.00,,,0.00,,2013-03-29 14:22:00,
2013-03-29 10:32:00,64.0,47.0,30.27,NNW,340,0.0,8.0,53,0.00,,,0.00,,2013-03-29 14:32:00,
2013-03-29 10:42:00,64.0,47.0,30.27,NNW,340,0.0,8.0,53,0.00,,,0.00,,2013-03-29 14:42:00,
2013-03-29 10:53:00,66.0,45.0,30.28,NNW,347,2.0,7.0,47,0.00,,,0.00,,2013-03-29 14:53:00,
2013-03-29 11:02:00,67.0,46.0,30.28,NNW,341,1.0,7.0,47,0.00,,,0.00,,2013-03-29 15:02:00,
2013-03-29 11:12:00,67.0,46.0,30.28,NNW,341,1.0,7.0,47,0.00,,,0.00,,2013-03-29 15:12:00,
2013-03-29 11:22:00,68.0,46.0,30.28,NNW,334,0.0,7.0,45,0.00,,,0.00,,2013-03-29 15:22:00,
2013-03-29 11:33:00,68.0,45.0,30.28,NNW,334,0.0,9.0,44,0.00,,,0.00,,2013-03-29 15:33:00,
2013-03-29 11:43:00,68.0,45.0,30.28,NNW,334,0.0,9.0,44,0.00,,,0.00,,2013-03-29 15:43:00,
2013-03-29 11:53:00,70.0,45.0,30.28,North,359,1.0,7.0,41,0.00,,,0.00,,2013-03-29 15:53:00,
2013-03-29 12:03:00,70.0,45.0,30.28,North,352,0.0,7.0,41,0.00,,,0.00,,2013-03-29 16:03:00,
2013-03-29 12:13:00,70.0,45.0,30.28,North,352,0.0,7.0,41,0.00,,,0.00,,2013-03-29 16:13:00,
2013-03-29 12:23:00,72.0,45.0,30.27,North,359,0.0,6.0,38,0.00,,,0.00,,2013-03-29 16:23:00,
2013-03-29 12:33:00,72.0,46.0,30.27,North,4,1.0,6.0,39,0.00,,,0.00,,2013-03-29 16:33:00,
2013-03-29 12:43:00,72.0,46.0,30.27,North,4,1.0,6.0,39,0.00,,,0.00,,2013-03-29 16:43:00,
2013-03-29 12:53:00,73.0,46.0,30.26,North,355,1.0,5.0,38,0.00,,,0.00,,2013-03-29 16:53:00,
2013-03-29 13:03:00,73.0,44.0,30.26,NNW,344,0.0,7.0,35,0.00,,,0.00,,2013-03-29 17:03:00,
2013-03-29 13:12:00,73.0,44.0,30.26,NNW,344,0.0,7.0,35,0.00,,,0.00,,2013-03-29 17:12:00,
2013-03-29 13:23:00,73.0,46.0,30.25,ENE,59,4.0,10.0,38,0.00,,,0.00,,2013-03-29 17:23:00,
2013-03-29 13:33:00,73.0,46.0,30.25,North,2,2.0,7.0,38,0.00,,,0.00,,2013-03-29 17:33:00,
2013-03-29 13:43:00,73.0,46.0,30.25,North,2,2.0,7.0,38,0.00,,,0.00,,2013-03-29 17:43:00,
2013-03-29 13:53:00,73.0,44.0,30.24,North,359,3.0,13.0,36,0.00,,,0.00,,2013-03-29 17:53:00,
2013-03-29 14:02:00,73.0,45.0,30.24,North,8,3.0,8.0,37,0.00,,,0.00,,2013-03-29 18:02:00,
2013-03-29 14:12:00,73.0,45.0,30.24,North,8,3.0,8.0,37,0.00,,,0.00,,2013-03-29 18:12:00,
2013-03-29 14:23:00,73.0,44.0,30.23,East,94,1.0,9.0,36,0.00,,,0.00,,2013-03-29 18:23:00,
2013-03-29 14:32:00,74.0,46.0,30.23,ESE,104,5.0,10.0,37,0.00,,,0.00,,2013-03-29 18:32:00,
2013-03-29 14:42:00,74.0,46.0,30.23,ESE,104,5.0,10.0,37,0.00,,,0.00,,2013-03-29 18:42:00,
2013-03-29 14:53:00,73.0,46.0,30.22,East,95,0.0,10.0,38,0.00,,,0.00,,2013-03-29 18:53:00,
2013-03-29 15:02:00,73.0,46.0,30.22,NNE,25,1.0,7.0,38,0.00,,,0.00,,2013-03-29 19:02:00,
2013-03-29 15:12:00,73.0,45.0,30.20,NE,45,1.0,8.0,37,0.00,,,0.00,,2013-03-29 19:12:00,
2013-03-29 15:23:00,73.0,45.0,30.20,NE,45,1.0,8.0,37,0.00,,,0.00,,2013-03-29 19:23:00,
2013-03-29 15:33:00,73.0,44.0,30.20,ENE,70,3.0,5.0,35,0.00,,,0.00,,2013-03-29 19:33:00,
2013-03-29 15:42:00,73.0,44.0,30.20,ENE,70,3.0,5.0,35,0.00,,,0.00,,2013-03-29 19:42:00,
2013-03-29 15:53:00,73.0,44.0,30.20,ENE,76,0.0,10.0,36,0.00,,,0.00,,2013-03-29 19:53:00,
2013-03-29 16:03:00,73.0,44.0,30.20,NE,50,1.0,7.0,36,0.00,,,0.00,,2013-03-29 20:03:00,
2013-03-29 16:12:00,73.0,44.0,30.20,NE,50,1.0,7.0,36,0.00,,,0.00,,2013-03-29 20:12:00,
2013-03-29 16:22:00,73.0,47.0,30.20,ENE,67,1.0,6.0,39,0.00,,,0.00,,2013-03-29 20:22:00,
2013-03-29 16:33:00,74.0,45.0,30.20,East,88,1.0,8.0,36,0.00,,,0.00,,2013-03-29 20:33:00,
2013-03-29 16:42:00,74.0,45.0,30.20,East,88,1.0,8.0,36,0.00,,,0.00,,2013-03-29 20:42:00,
2013-03-29 16:52:00,74.0,45.0,30.19,East,98,2.0,8.0,35,0.00,,,0.00,,2013-03-29 20:52:00,
2013-03-29 17:02:00,74.0,45.0,30.19,East,94,1.0,8.0,36,0.00,,,0.00,,2013-03-29 21:02:00,
2013-03-29 17:12:00,74.0,45.0,30.19,East,94,1.0,8.0,36,0.00,,,0.00,,2013-03-29 21:12:00,
2013-03-29 17:22:00,73.0,46.0,30.18,ENE,57,2.0,5.0,38,0.00,,,0.00,,2013-03-29 21:22:00,
2013-03-29 17:33:00,73.0,46.0,30.18,NE,56,1.0,6.0,38,0.00,,,0.00,,2013-03-29 21:33:00,
2013-03-29 17:43:00,73.0,46.0,30.18,NE,56,1.0,6.0,38,0.00,,,0.00,,2013-03-29 21:43:00,
2013-03-29 17:53:00,73.0,47.0,30.18,East,88,1.0,8.0,39,0.00,,,0.00,,2013-03-29 21:53:00,
2013-03-29 18:03:00,72.0,46.0,30.18,East,101,4.0,10.0,39,0.00,,,0.00,,2013-03-29 22:03:00,
2013-03-29 18:13:00,72.0,46.0,30.18,East,101,4.0,10.0,39,0.00,,,0.00,,2013-03-29 22:13:00,
2013-03-29 18:23:00,71.0,46.0,30.17,East,81,1.0,7.0,41,0.00,,,0.00,,2013-03-29 22:23:00,
2013-03-29 18:33:00,71.0,46.0,30.17,ENE,77,2.0,9.0,41,0.00,,,0.00,,2013-03-29 22:33:00,
2013-03-29 18:42:00,71.0,46.0,30.17,ENE,77,2.0,9.0,41,0.00,,,0.00,,2013-03-29 22:42:00,
2013-03-29 18:54:00,70.0,46.0,30.17,East,101,1.0,8.0,43,0.00,,,0.00,,2013-03-29 22:54:00,
2013-03-29 19:03:00,70.0,47.0,30.17,East,94,0.0,3.0,44,0.00,,,0.00,,2013-03-29 23:03:00,
2013-03-29 19:12:00,70.0,47.0,30.17,East,94,0.0,3.0,44,0.00,,,0.00,,2013-03-29 23:12:00,
2013-03-29 19:22:00,68.0,46.0,30.17,East,81,0.0,6.0,46,0.00,,,0.00,,2013-03-29 23:22:00,
2013-03-29 19:32:00,67.0,47.0,30.17,East,81,1.0,3.0,49,0.00,,,0.00,,2013-03-29 23:32:00,
2013-03-29 19:42:00,67.0,47.0,30.17,East,81,1.0,3.0,49,0.00,,,0.00,,2013-03-29 23:42:00,
2013-03-29 19:53:00,65.0,47.0,30.19,East,87,0.0,2.0,53,0.00,,,0.00,,2013-03-29 23:53:00,
2013-03-29 20:03:00,64.0,47.0,30.19,East,87,0.0,1.0,54,0.00,,,0.00,,2013-03-30 00:03:00,
2013-03-29 20:12:00,64.0,47.0,30.19,East,87,0.0,1.0,54,0.00,,,0.00,,2013-03-30 00:12:00,
2013-03-29 20:22:00,63.0,48.0,30.19,East,87,0.0,1.0,59,0.00,,,0.00,,2013-03-30 00:22:00,
2013-03-29 20:32:00,62.0,48.0,30.19,East,87,0.0,1.0,60,0.00,,,0.00,,2013-03-30 00:32:00,
2013-03-29 20:42:00,62.0,48.0,30.19,East,87,0.0,1.0,60,0.00,,,0.00,,2013-03-30 00:42:00,
2013-03-29 20:53:00,61.0,49.0,30.19,East,87,0.0,0.0,65,0.00,,,0.00,,2013-03-30 00:53:00,
2013-03-29 21:03:00,60.0,49.0,30.19,East,87,0.0,0.0,66,0.00,,,0.00,,2013-03-30 01:03:00,
2013-03-29 21:12:00,60.0,49.0,30.19,East,87,0.0,0.0,66,0.00,,,0.00,,2013-03-30 01:12:00,
2013-03-29 21:22:00,59.0,48.0,30.19,East,87,0.0,1.0,67,0.00,,,0.00,,2013-03-30 01:22:00,
2013-03-29 21:33:00,59.0,48.0,30.19,East,87,0.0,0.0,68,0.00,,,0.00,,2013-03-30 01:33:00,
2013-03-29 21:43:00,59.0,48.0,30.19,East,87,0.0,0.0,68,0.00,,,0.00,,2013-03-30 01:43:00,
2013-03-29 21:53:00,58.0,47.0,30.20,East,87,0.0,0.0,68,0.00,,,0.00,,2013-03-30 01:53:00,
2013-03-29 22:03:00,58.0,48.0,30.20,East,87,0.0,1.0,69,0.00,,,0.00,,2013-03-30 02:03:00,
2013-03-29 22:12:00,58.0,48.0,30.20,East,87,0.0,1.0,69,0.00,,,0.00,,2013-03-30 02:12:00,
2013-03-29 22:22:00,58.0,49.0,30.20,East,87,0.0,0.0,71,0.00,,,0.00,,2013-03-30 02:22:00,
2013-03-29 22:33:00,57.0,48.0,30.20,East,87,0.0,0.0,72,0.00,,,0.00,,2013-03-30 02:33:00,
2013-03-29 22:42:00,57.0,48.0,30.20,East,87,0.0,0.0,72,0.00,,,0.00,,2013-03-30 02:42:00,
2013-03-29 22:53:00,57.0,48.0,30.20,East,87,0.0,0.0,73,0.00,,,0.00,,2013-03-30 02:53:00,
2013-03-29 23:03:00,56.0,48.0,30.20,East,87,0.0,0.0,74,0.00,,,0.00,,2013-03-30 03:03:00,
2013-03-29 23:12:00,56.0,48.0,30.21,East,87,0.0,0.0,74,0.00,,,0.00,,2013-03-30 03:12:00,
2013-03-29 23:22:00,56.0,48.0,30.21,East,87,0.0,0.0,74,0.00,,,0.00,,2013-03-30 03:22:00,
2013-03-29 23:33:00,56.0,48.0,30.21,East,87,0.0,0.0,75,0.00,,,0.00,,2013-03-30 03:33:00,
2013-03-29 23:43:00,56.0,48.0,30.21,East,87,0.0,0.0,75,0.00,,,0.00,,2013-03-30 03:43:00,
2013-03-29 23:53:00,55.0,48.0,30.20,East,87,0.0,0.0,78,0.00,,,0.00,,2013-03-30 03:53:00,